Sauk Centre, MN

5:10 AM CDT on May 21, 2018 (GMT -0500)
Sauk Centre

Weather History for KD39 - July, 2013

Change the Weather History Date:

Saturday, July 13, 2013

  Actual Average (KGHW) Record (KGHW)
Temperature  
Mean Temperature 72 °F -  
Max Temperature 77 °F 82 °F 93 °F (1983)
Min Temperature 68 °F 59 °F 45 °F (1950)
Cooling Degree Days 8    
Growing Degree Days 22 (Base 50)    
Moisture  
Dew Point 65 °F    
Average Humidity 81    
Maximum Humidity 89    
Minimum Humidity 68    
Precipitation  
Precipitation 0.01 in - - ()
Sea Level Pressure  
Sea Level Pressure 29.97 in    
Wind  
Wind Speed 10 mph (SE)    
Max Wind Speed 15 mph    
Max Gust Speed 21 mph    
Visibility 10 miles    
Events Rain , Thunderstorm    
Averages and records for this station are not official NWS values.
T = Trace of Precipitation, MM = Missing Value Source: NWS Daily Summary

Daily Weather History Graph

Daily Weather History Graph

Search for Another Location

Airport or City:

Astronomy

Jul. 13, 2013 Rise Set
Actual Time 5:43 AM CDT 9:07 PM CDT
Civil Twilight 5:06 AM CDT 9:44 PM CDT
Nautical Twilight 4:17 AM CDT 10:32 PM CDT
Astronomical Twilight 3:15 AM CDT 11:33 PM CDT
Moon 11:19 AM CDT (7/13) 11:27 PM CDT (7/13)
Length of Visible Light 16h 37m
Length of Day
15h 24m
Waxing Crescent, 26% of the Moon is Illuminated
Jul 13
Waxing Crescent
Jul 15
First Quarter
Jul 22
Full
Jul 29
Last Quarter
Aug 6
New

Hourly Weather History & Observations

Time (CDT) Temp. Dew Point Humidity Pressure Visibility Wind Dir Wind Speed Gust Speed Precip Events Conditions
12:09 AM 76.1 °F 64.8 °F 68% 29.91 in 10.0 mi South 10.4 mph - 0.01 in Rain , Thunderstorm Heavy Thunderstorms and Rain
12:30 AM 71.6 °F 66.4 °F 84% 29.90 in 10.0 mi South 11.5 mph - 0.04 in Rain , Thunderstorm Light Thunderstorms and Rain
12:50 AM 71.1 °F 66.2 °F 85% 29.89 in 10.0 mi SSE 9.2 mph - 0.04 in   Clear
1:10 AM 70.5 °F 66.2 °F 86% 29.89 in 10.0 mi SSE 5.8 mph - N/A   Clear
1:30 AM 70.3 °F 65.7 °F 85% 29.89 in 10.0 mi SSE 6.9 mph - N/A   Clear
1:50 AM 70.3 °F 65.5 °F 85% 29.90 in 10.0 mi SE 8.1 mph - N/A   Clear
2:10 AM 70.7 °F 65.3 °F 83% 29.91 in 10.0 mi ESE 8.1 mph - N/A   Mostly Cloudy
2:30 AM 70.7 °F 65.3 °F 83% 29.91 in 10.0 mi SE 10.4 mph - N/A   Overcast
2:50 AM 70.2 °F 65.3 °F 85% 29.91 in 10.0 mi SE 6.9 mph - N/A   Overcast
3:10 AM 69.8 °F 65.5 °F 86% 29.91 in 10.0 mi SE 6.9 mph - N/A   Scattered Clouds
3:30 AM 69.4 °F 65.3 °F 87% 29.90 in 10.0 mi SE 8.1 mph - N/A   Scattered Clouds
3:50 AM 69.1 °F 65.3 °F 88% 29.90 in 10.0 mi SE 9.2 mph - N/A   Scattered Clouds
4:10 AM 69.1 °F 65.3 °F 88% 29.90 in 10.0 mi SE 11.5 mph - N/A   Scattered Clouds
4:30 AM 68.7 °F 65.3 °F 89% 29.91 in 10.0 mi SE 11.5 mph - 0.01 in   Clear
4:50 AM 68.9 °F 64.9 °F 87% 29.91 in 10.0 mi ESE 12.7 mph - 0.01 in   Mostly Cloudy
5:10 AM 69.1 °F 64.9 °F 87% 29.91 in 10.0 mi SE 10.4 mph 16.1 mph N/A   Overcast
5:30 AM 68.9 °F 64.9 °F 87% 29.92 in 10.0 mi SE 13.8 mph 18.4 mph N/A   Overcast
5:50 AM 68.9 °F 64.8 °F 87% 29.92 in 10.0 mi ESE 10.4 mph 18.4 mph N/A   Overcast
6:10 AM 68.9 °F 64.4 °F 86% 29.93 in 10.0 mi SE 10.4 mph - N/A   Overcast
6:30 AM 68.9 °F 64.4 °F 86% 29.94 in 10.0 mi SE 10.4 mph 17.3 mph N/A   Overcast
6:49 AM 69.1 °F 64.4 °F 85% 29.95 in 10.0 mi SE 9.2 mph 17.3 mph N/A   Overcast
7:10 AM 69.3 °F 64.9 °F 86% 29.96 in 10.0 mi SE 9.2 mph - N/A   Overcast
7:30 AM 69.3 °F 65.3 °F 87% 29.97 in 10.0 mi SE 13.8 mph - N/A   Overcast
7:50 AM 68.9 °F 64.4 °F 86% 29.97 in 10.0 mi SE 13.8 mph 20.7 mph N/A   Overcast
8:10 AM 69.3 °F 64.4 °F 84% 29.96 in 10.0 mi SE 13.8 mph 20.7 mph N/A   Overcast
8:30 AM 69.3 °F 64.4 °F 84% 29.97 in 10.0 mi SSE 15.0 mph 20.7 mph N/A   Overcast
8:50 AM 70.5 °F 64.8 °F 82% 29.97 in 10.0 mi SSE 11.5 mph 18.4 mph N/A   Scattered Clouds
9:10 AM 70.7 °F 64.6 °F 81% 29.97 in 10.0 mi SSE 12.7 mph - N/A   Mostly Cloudy
9:29 AM 70.3 °F 64.8 °F 82% 29.98 in 10.0 mi SSE 11.5 mph - N/A   Overcast
9:50 AM 70.0 °F 64.4 °F 82% 29.98 in 10.0 mi SSE 10.4 mph - N/A   Overcast
10:10 AM 70.3 °F 64.8 °F 82% 29.98 in 10.0 mi SSE 9.2 mph - N/A   Overcast
10:30 AM 71.2 °F 64.8 °F 80% 29.98 in 10.0 mi SSE 9.2 mph - N/A   Overcast
10:50 AM 70.9 °F 64.9 °F 81% 29.99 in 10.0 mi South 13.8 mph 18.4 mph N/A   Overcast
11:09 AM 70.7 °F 65.3 °F 83% 29.99 in 10.0 mi South 10.4 mph - N/A   Overcast
11:30 AM 70.7 °F 65.5 °F 83% 30.00 in 10.0 mi South 12.7 mph - N/A   Overcast
11:50 AM 70.7 °F 65.5 °F 83% 29.99 in 10.0 mi SSE 8.1 mph - N/A   Overcast
12:10 PM 72.0 °F 65.3 °F 79% 29.99 in 10.0 mi SSE 12.7 mph - N/A   Overcast
12:30 PM 72.1 °F 65.1 °F 78% 29.99 in 10.0 mi SSE 10.4 mph - N/A   Mostly Cloudy
12:50 PM - - N/A% 29.96 in 10.0 mi ESE 11.5 mph - N/A   Scattered Clouds
1:10 PM 70.7 °F 64.9 °F 82% 29.96 in 10.0 mi ESE 9.2 mph - N/A   Clear
1:30 PM 70.9 °F 65.3 °F 82% 29.98 in 10.0 mi SE 4.6 mph - N/A   Clear
1:50 PM 71.2 °F 64.9 °F 80% 29.97 in 10.0 mi NE 5.8 mph - N/A   Scattered Clouds
2:10 PM 71.4 °F 64.6 °F 79% 29.99 in 10.0 mi Calm Calm - N/A   Mostly Cloudy
2:30 PM 71.6 °F 64.8 °F 79% 30.02 in 10.0 mi South 5.8 mph - N/A   Overcast
2:50 PM 71.6 °F 65.3 °F 80% 30.02 in 10.0 mi SSE 8.1 mph - N/A   Overcast
3:10 PM 72.0 °F 65.5 °F 80% 30.01 in 10.0 mi SE 6.9 mph - N/A   Overcast
3:30 PM 73.4 °F 65.5 °F 76% 30.02 in 10.0 mi ESE 9.2 mph - N/A   Overcast
3:50 PM 74.1 °F 65.8 °F 75% 30.01 in 10.0 mi ESE 6.9 mph - N/A   Overcast
4:10 PM 75.0 °F 66.2 °F 74% 30.00 in 10.0 mi ESE 8.1 mph - N/A   Mostly Cloudy
4:30 PM 75.9 °F 66.2 °F 72% 30.00 in 10.0 mi ESE 9.2 mph - N/A   Scattered Clouds
4:49 PM 75.9 °F 66.4 °F 72% 30.00 in 10.0 mi East 5.8 mph - N/A   Scattered Clouds
5:10 PM - - N/A% 30.00 in - SE 9.2 mph - N/A   Unknown
5:29 PM 76.8 °F 66.7 °F 71% 30.00 in 10.0 mi East 8.1 mph - N/A   Mostly Cloudy
5:50 PM 77.0 °F 67.1 °F 71% 30.00 in 10.0 mi ESE 10.4 mph - N/A   Scattered Clouds
6:10 PM 76.8 °F 67.1 °F 72% 29.99 in 10.0 mi ESE 11.5 mph - N/A   Mostly Cloudy
6:29 PM 76.1 °F 67.1 °F 74% 29.99 in 10.0 mi SE 12.7 mph - N/A   Mostly Cloudy
6:50 PM 75.4 °F 66.4 °F 73% 29.99 in 10.0 mi ESE 11.5 mph - N/A   Scattered Clouds
7:10 PM 73.4 °F 65.1 °F 75% 30.00 in 10.0 mi SE 10.4 mph 16.1 mph N/A   Scattered Clouds
7:30 PM 73.6 °F 65.3 °F 75% 30.00 in 10.0 mi SE 11.5 mph - N/A   Scattered Clouds
7:50 PM 73.6 °F 66.2 °F 78% 29.99 in 10.0 mi SE 9.2 mph - N/A   Scattered Clouds
8:10 PM 73.4 °F 66.4 °F 79% 29.99 in 10.0 mi SE 8.1 mph - N/A   Scattered Clouds
8:30 PM 72.7 °F 67.1 °F 83% 29.99 in 10.0 mi SE 10.4 mph - N/A   Scattered Clouds
8:50 PM 72.0 °F 66.7 °F 84% 29.99 in 10.0 mi ESE 11.5 mph 17.3 mph N/A   Overcast
9:10 PM 71.4 °F 66.6 °F 85% 29.99 in 10.0 mi ESE 11.5 mph - N/A   Overcast
9:30 PM 71.1 °F 66.6 °F 86% 30.01 in 10.0 mi ESE 10.4 mph - N/A   Overcast
9:50 PM - - N/A% 30.02 in 10.0 mi ESE 9.2 mph - N/A   Overcast
10:10 PM 71.1 °F 66.0 °F 84% 30.02 in 10.0 mi ESE 12.7 mph - N/A   Overcast
10:30 PM 70.9 °F 65.3 °F 82% 30.03 in 10.0 mi ESE 6.9 mph - N/A   Overcast
10:50 PM 70.3 °F 64.4 °F 81% 30.03 in 10.0 mi East 6.9 mph - N/A   Mostly Cloudy
11:09 PM 70.2 °F 63.7 °F 80% 30.04 in 10.0 mi ESE 9.2 mph - N/A   Overcast
11:30 PM 69.8 °F 62.6 °F 78% 30.04 in 10.0 mi ESE 8.1 mph - N/A   Overcast
11:50 PM 69.4 °F 61.9 °F 77% 30.05 in 10.0 mi ESE 6.9 mph - N/A   Overcast